Location: Newark
(35.8967°N, 14.4625°E)
Time: 00:00:03
(UTC+00:00)

N. Korean satellite - Pass Details

Date: 19 March 2019
Orbit: 457 x 508 km, 97.2° (Epoch: 22 April)

Event Time Altitude Azimuth Distance (km) Brightness Sun altitude
Rises 04:22:28 0° 29° (NNE) 2,515 10.7 -10.0°
Reaches altitude 10° 04:24:58 10° 48° (NE) 1,642 10.1 -9.5°
Maximum altitude 04:27:32 19° 95° (E) 1,197 9.8 -9.0°
Drops below altitude 10° 04:30:07 10° 142° (SE) 1,653 9.7 -8.5°
Sets 04:32:38 0° 161° (SSE) 2,539 10.4 -8.0°
